Regional Weather Roundup
Issued by NWS

Home | Current Version | Previous Version | Text Only | Print | Product List | Glossary Off
Versions: 1 2 3 4 5 6 7 8 9 10 11 12 13 14 15 16 17 18 19 20 21 22 23 24 25 26 27 28 29 30 31 32 33 34 35 36 37 38 39 40 41 42 43 44 45 46 47 48 49 50

000
ASUS43 KDMX 271207
RWRIA

WEATHER ROUNDUP FOR IOWA
NATIONAL WEATHER SERVICE DES MOINES IA
700 AM CDT WED AUG 27 2014

NOTE: "FAIR" INDICATES FEW OR NO CLOUDS BELOW 12,000 FEET WITH NO
SIGNIFICANT WEATHER AND/OR OBSTRUCTIONS TO VISIBILITY.

* - THESE STATIONS ARE NOT NWS STATIONS...THUS NOT UNDER NWS
QUALITY CONTROL.  THEY ALSO DO NOT REPORT WEATHER SUCH
AS PRECIPITATION OR FOG.

IAZ001>003-012>014-020>022-031>034-043>046-271300-
   NORTHWEST IOWA

CITY           SKY/WX    TMP DP  RH WIND       PRES   REMARKS
CARROLL *      MOCLDY    64  63  94 E3        30.15S
CHEROKEE *     CLOUDY    60  59  97 CALM      30.15R
DENISON *      PTCLDY    64  64 100 MISG      30.13S
LE MARS *      CLOUDY    63  57  82 NE5       30.14R
ORANGE CITY *  CLEAR     61  55  82 E5        30.15R
SHELDON *      MOCLDY    57  55  94 E5        30.15R
SIOUX CITY       N/A     65  60  84 S3        30.13R
6HR MIN TEMP:  64; 6HR MAX TEMP:  66;

SPENCER        PTCLDY    58  55  90 E5        30.16S
6HR MIN TEMP:  56; 6HR MAX TEMP:  59;

STORM LAKE *   CLEAR     59  59 100 E5        30.16R
$$

IAZ055>058-069>071-079>083-090>094-271300-
   SOUTHWEST IOWA

CITY           SKY/WX    TMP DP  RH WIND       PRES   REMARKS
ATLANTIC *     CLOUDY    68  66  94 E7        30.12S
AUDUBON *      CLEAR     66  64  94 CALM      30.16S
CLARINDA *     MOCLDY    68  68 100 CALM      30.10F
COUNCIL BLFS * MOCLDY    66  66 100 E10       30.09S
CRESTON *      CLOUDY    66  66 100 SE5       30.17R
HARLAN  *      LGT RAIN  66  66 100 E3        30.16R
LAMONI         TSTM      68  67  96 SW6       30.15R FOG
6HR MIN TEMP:  67; 6HR MAX TEMP:  70; 6HR PCP:  0.95;

RED OAK *      CLOUDY    68  66  94 NE9       30.11R
SHENANDOAH *   LGT RAIN  70  68  94 E5        30.09R
$$

IAZ047>049-059>061-072>074-084-271300-
   CENTRAL IOWA

CITY           SKY/WX    TMP DP  RH WIND       PRES   REMARKS
AMES           PTCLDY    64  61  90 E5        30.16R
6HR MIN TEMP:  64; 6HR MAX TEMP:  67; 6HR PCP:  0.02;

ANKENY *       CLOUDY    64  63  94 CALM      30.15R
CHARITON *     MOCLDY    66  64  94 CALM      30.15R
DES MOINES     CLOUDY    68  62  81 NE7       30.14R
6HR MIN TEMP:  68; 6HR MAX TEMP:  72;

GRINNELL*      MOCLDY    64  63  94 NE5       30.16R
KNOXVILLE *    PTCLDY    66  63  88 NE8       30.13R
MARSHALLTOWN   MOCLDY    63  60  90 NE6       30.16R
6HR MIN TEMP:  63; 6HR MAX TEMP:  66; 6HR PCP: TRACE;

PELLA *        MOCLDY    66  64  93 CALM      30.15R
PERRY *        LGT RAIN  66  64  94 CALM      30.15F
$$

IAZ004>006-015-016-023>025-035-036-271300-
   NORTH CENTRAL IOWA

CITY           SKY/WX    TMP DP  RH WIND       PRES   REMARKS
ALGONA *       PTCLDY    59  57  94 E6        30.17R
CLARION *      MOCLDY    61  57  88 E7        30.17R
ESTHERVILLE    CLEAR     54  53  97 NE5       30.17S
6HR MIN TEMP:  54; 6HR MAX TEMP:  58;

FORT DODGE *   CLOUDY    63  59  88 E5        30.18R
MASON CITY     CLEAR     56  55  97 NE3       30.19R
6HR MIN TEMP:  54; 6HR MAX TEMP:  59;

FOREST CITY *  PTCLDY    55  55 100 CALM      30.18R
IOWA FALLS *   MOCLDY    62  57  86 E3        30.19R
$$

IAZ007>011-017>019-026>030-037>042-050>054-066-271300-
   NORTHEAST IOWA

CITY           SKY/WX    TMP DP  RH WIND       PRES   REMARKS
CEDAR RAPIDS   PTCLDY    65  62  90 NE7       30.15R
6HR MIN TEMP:  64; 6HR MAX TEMP:  69; 6HR PCP:  0.04;

CHARLES CITY * CLEAR     59  55  88 NE5       30.18R
CLINTON *      CLOUDY    64  61  88 NE6       30.17S
DECORAH *      CLEAR     57  57 100 CALM      30.17R
DUBUQUE        PTCLDY    61  59  93 NE8       30.16F
6HR MIN TEMP:  60; 6HR MAX TEMP:  66;

MONTICELLO *   CLEAR     63  61  94 NE5       30.15S
OELWEIN *      CLEAR     59  59 100 E6        30.18R
WATERLOO       CLEAR     61  57  87 CALM      30.17R
6HR MIN TEMP:  59; 6HR MAX TEMP:  66;

$$

IAZ064-065-067-068-078-271300-
   EAST CENTRAL IOWA

CITY           SKY/WX    TMP DP  RH WIND       PRES   REMARKS
DAVENPORT      CLOUDY    66  62  87 NE9       30.14R
6HR MIN TEMP:  66; 6HR MAX TEMP:  68; 6HR PCP: TRACE;

IOWA CITY      PTCLDY    66  62  87 NE9       30.15R
6HR MIN TEMP:  66; 6HR MAX TEMP:  72; 6HR PCP: TRACE;

MT. PLEASANT * PTCLDY    66  65  95 N5        30.12R
MUSCATINE *    CLEAR     66  64  94 N7        30.14R
QUAD CITIES    MOCLDY    69  61  75 NE7       30.13R
6HR MIN TEMP:  68; 6HR MAX TEMP:  72;

$$

IAZ062-063-075>077-085>089-095>099-271300-
   SOUTHEAST IOWA

CITY           SKY/WX    TMP DP  RH WIND       PRES   REMARKS
BURLINGTON     PTCLDY    70  66  87 NE8       30.11R
6HR MIN TEMP:  70; 6HR MAX TEMP:  72; 6HR PCP:  0.05;

FAIRFIELD *    CLEAR     66  64  94 NE7       30.13S
FORT MADISON * CLEAR     70  68  94 NE5       30.12S
KEOKUK *       CLEAR     70  68  94 NE7       30.10R
OSKALOOSA *      N/A     65  64  97 NE5       30.13S
CENTERVILLE *  PTCLDY    66  66 100 NE5       30.14R
OTTUMWA        MOCLDY    66  63  90 NE8       30.13R
6HR MIN TEMP:  65; 6HR MAX TEMP:  69;

WASHINGTON *   CLEAR     66  66 100 NE6       30.13R
$$

ABBREVIATIONS USED IN REMARKS
   TC - TEMPERATURES IN CELSIUS
  WCI - WIND CHILL INDEX
   HX - HEAT INDEX
  VSB - VISIBILITY
$$



USA.gov is the U.S. government's official web portal to all federal, state and local government web resources and services.